Location: Unspecified
(0.0000°N, 0.0000°E)
Time: 16:23:10
(UTC+00:00)

AAUSAT3 - Pass Details

Date: 08 August 2024
Orbit: 756 x 773 km, 98.4° (Epoch: 17 September)

Event Time Altitude Azimuth Distance (km) Brightness Sun altitude
Rises 18:22:05 0° 4° (N) 3,206 ? -4.0°
Reaches altitude 10° 18:24:25 10° 360° (N) 2,285 ? -4.5°
Maximum altitude 18:29:20 55° 282° (WNW) 910 ? -5.7°
Drops below altitude 10° 18:34:18 10° 205° (SSW) 2,306 ? -6.9°
Sets 18:36:39 0° 200° (SSW) 3,237 ? -7.5°
